Date String (YYYY-MM-DD hh:mm:ss) UTC,Instrument flags,absolute air pressure of the measurement (hPa),sample flow rate (lpm),inlet stack bypass flow (lpm),air temperature of the measurement (°C),ambient temperature measured by the external sensor (°C),aerosol sample conditioner tube jacket temperature (°C),OPC LED temperature (°C),internal box temperature (°C),relative humidity of the measurement (%),span deviation,mass concentration of particles derived from Lorenz-Mie calculation of OPC scattering (μg/m³),mass concentration of particles derived from Lorenz-Mie calculation of OPC scattering (μg/m³),mass concentration of particles derived from Lorenz-Mie calculation of OPC scattering (μg/m³)
DateTimeUTC,F1_M11,P_M11,Q1_M11,Q2_M11,T1_M11,T2_M11,T3_M11,T4_M11,T5_M11,U1_M11,ZSPAN_M11,X0_M11,X2_M11,X1_M11
2023-06-26 21:00:00,SystemResetWarning,0829.5,5.00,000.00,030.8,025.8,000.0,038.7,030.9,32.6,0003.2,0024.73,0008.08,0006.47
2023-06-26 21:01:00,SystemResetWarning,0829.5,5.00,000.00,030.8,026.2,000.0,038.7,031.0,31.7,0003.1,0024.97,0008.07,0006.47
2023-06-26 21:02:00,SystemResetWarning,0829.5,5.01,000.00,030.8,026.7,000.0,038.8,031.1,32.0,0003.1,0025.00,0008.10,0006.48
2023-06-26 21:03:00,SystemResetWarning,0829.5,4.99,000.00,030.8,027.1,000.0,038.8,031.2,31.8,0003.1,0024.55,0008.18,0006.52
2023-06-26 21:04:00,SystemResetWarning,0829.5,4.99,000.00,030.8,027.4,000.0,038.8,031.3,32.2,0003.1,0023.93,0008.30,0006.58
2023-06-26 21:05:00,SystemResetWarning,0829.5,5.01,000.00,030.8,027.7,000.0,038.8,031.3,31.9,0003.1,0023.91,0008.41,0006.61
2023-06-26 21:06:00,SystemResetWarning,0829.5,5.01,000.00,030.8,027.8,000.0,038.9,031.4,31.1,0003.1,0024.99,0008.44,0006.60
2023-06-26 21:07:00,SystemResetWarning,0829.4,4.98,000.00,030.8,026.3,000.0,038.8,031.5,31.7,0002.8,0025.83,0008.48,0006.60
2023-06-26 21:08:00,SystemResetWarning,0829.4,5.01,000.00,030.8,024.8,000.0,038.8,031.4,32.4,0002.8,0025.80,0008.54,0006.61
2023-06-26 21:09:00,SystemResetWarning,0829.4,5.00,000.00,030.8,024.6,000.0,038.7,031.3,32.2,0002.8,0027.06,0008.61,0006.64
2023-06-26 21:10:00,SystemResetWarning,0829.3,5.01,000.00,030.6,024.9,000.0,038.7,030.9,33.1,0002.8,0026.91,0008.63,0006.69
2023-06-26 21:11:00,SystemResetWarning,0829.4,5.00,000.00,030.5,025.4,000.0,038.7,030.8,32.3,0002.5,0027.29,0008.67,0006.74
2023-06-26 21:12:00,SystemResetWarning,0829.4,4.99,000.00,030.4,025.9,000.0,038.7,030.9,33.0,0002.4,0027.47,0008.71,0006.78
2023-06-26 21:13:00,SystemResetWarning,0829.4,5.00,000.00,030.4,026.4,000.0,038.7,031.1,33.5,0002.5,0028.11,0008.72,0006.79
2023-06-26 21:14:00,SystemResetWarning,0829.4,5.00,000.00,030.4,026.8,000.0,038.7,031.1,33.3,0002.7,0028.05,0008.71,0006.79
2023-06-26 21:15:00,SystemResetWarning,0829.4,5.00,000.00,030.4,027.2,000.0,038.7,031.2,33.6,0002.8,0028.83,0008.67,0006.77
2023-06-26 21:16:00,SystemResetWarning,0829.4,4.99,000.00,030.4,027.5,000.0,038.7,031.3,33.1,0002.9,0028.83,0008.64,0006.77
2023-06-26 21:17:00,SystemResetWarning,0829.3,4.99,000.00,030.4,027.8,000.0,038.7,031.4,33.8,0003.0,0028.07,0008.71,0006.78
2023-06-26 21:18:00,SystemResetWarning,0829.4,5.00,000.00,030.4,026.7,000.0,038.6,031.4,33.6,0003.1,0027.50,0008.72,0006.79
2023-06-26 21:19:00,SystemResetWarning,0829.4,5.01,000.00,030.4,024.9,000.0,038.6,031.3,32.5,0003.2,0027.87,0008.67,0006.77
2023-06-26 21:20:00,SystemResetWarning,0829.4,5.02,000.00,030.4,024.5,000.0,038.5,031.3,31.9,0003.0,0027.72,0008.70,0006.76
2023-06-26 21:21:00,SystemResetWarning,0829.3,4.99,000.00,030.2,024.8,000.0,038.5,030.8,32.1,0003.1,0027.92,0008.71,0006.72
2023-06-26 21:22:00,SystemResetWarning,0829.4,5.00,000.00,030.1,025.2,000.0,038.5,030.7,32.3,0003.3,0029.42,0008.69,0006.71
2023-06-26 21:23:00,SystemResetWarning,0829.3,5.00,000.00,030.0,025.8,000.0,038.5,030.8,33.3,0003.3,0029.05,0008.66,0006.67
2023-06-26 21:24:00,SystemResetWarning,0829.3,5.00,000.00,030.0,026.3,000.0,038.4,030.9,34.0,0003.3,0029.39,0008.66,0006.65
2023-06-26 21:25:00,SystemResetWarning,0829.3,4.99,000.00,030.0,026.7,000.0,038.4,031.0,35.0,0003.1,0030.55,0008.67,0006.64
2023-06-26 21:26:00,SystemResetWarning,0829.3,5.01,000.00,030.1,027.1,000.0,038.4,031.2,33.4,0003.0,0030.40,0008.70,0006.65
2023-06-26 21:27:00,SystemResetWarning,0829.3,4.98,000.00,030.2,027.4,000.0,038.4,031.2,34.3,0002.9,0030.74,0008.81,0006.64
2023-06-26 21:28:00,SystemResetWarning,0829.3,5.02,000.00,030.2,027.7,000.0,038.5,031.3,34.0,0002.6,0030.74,0008.76,0006.62
2023-06-26 21:29:00,SystemResetWarning,0829.3,4.99,000.00,030.3,027.8,000.0,038.5,031.4,32.9,0002.3,0031.21,0008.71,0006.59
2023-06-26 21:30:00,SystemResetWarning,0829.2,4.99,000.00,030.3,026.3,000.0,038.4,031.3,33.1,0002.3,0030.99,0008.73,0006.59
2023-06-26 21:31:00,SystemResetWarning,0829.2,5.00,000.00,030.3,024.9,000.0,038.4,031.2,31.8,0002.3,0030.62,0008.61,0006.56
2023-06-26 21:32:00,SystemResetWarning,0829.2,5.00,000.00,030.3,024.7,000.0,038.3,031.1,32.5,0002.5,0030.43,0008.52,0006.54
2023-06-26 21:33:00,SystemResetWarning,0829.2,5.02,000.00,030.1,025.0,000.0,038.3,030.8,32.9,0002.4,0029.05,0008.52,0006.52
2023-06-26 21:34:00,SystemResetWarning,0829.2,5.01,000.00,030.0,025.5,000.0,038.4,030.8,31.9,0002.7,0028.56,0008.49,0006.48
2023-06-26 21:35:00,SystemResetWarning,0829.1,4.99,000.00,030.0,026.0,000.0,038.4,030.9,31.9,0002.4,0029.62,0008.41,0006.45
2023-06-26 21:36:00,SystemResetWarning,0829.1,5.00,000.00,030.0,026.5,000.0,038.4,031.0,32.1,0002.2,0029.57,0008.38,0006.44
2023-06-26 21:37:00,SystemResetWarning,0829.1,5.00,000.00,030.0,026.9,000.0,038.4,031.0,32.1,0002.2,0029.81,0008.37,0006.41
2023-06-26 21:38:00,SystemResetWarning,0829.1,5.01,000.00,030.0,027.2,000.0,038.4,031.1,31.5,0002.2,0030.09,0008.25,0006.37
2023-06-26 21:39:00,SystemResetWarning,0829.1,5.01,000.00,030.0,027.6,000.0,038.4,031.2,31.7,0002.3,0030.27,0008.19,0006.34
2023-06-26 21:40:00,SystemResetWarning,0829.1,4.99,000.00,030.0,027.3,000.0,038.4,031.3,32.0,0002.3,0030.62,0008.22,0006.32
2023-06-26 21:41:00,SystemResetWarning,0829.1,5.00,000.00,030.0,025.5,000.0,038.3,031.2,31.6,0002.5,0030.90,0008.18,0006.31
2023-06-26 21:42:00,SystemResetWarning,0829.1,5.01,000.00,030.0,024.6,000.0,038.2,031.2,31.4,0002.7,0031.24,0008.23,0006.30
2023-06-26 21:43:00,SystemResetWarning,0829.1,5.01,000.00,029.9,024.7,000.0,038.2,030.9,31.4,0002.5,0030.02,0008.26,0006.30
2023-06-26 21:44:00,SystemResetWarning,0829.1,5.01,000.00,029.8,025.1,000.0,038.2,030.7,32.4,0002.3,0029.96,0008.29,0006.30
2023-06-26 21:45:00,SystemResetWarning,0829.1,4.99,000.00,029.7,025.6,000.0,038.2,030.7,33.0,0002.3,0029.58,0008.34,0006.29
2023-06-26 21:46:00,SystemResetWarning,0829.1,5.01,000.00,029.7,026.1,000.0,038.2,030.8,32.4,0002.3,0028.63,0008.35,0006.29
2023-06-26 21:47:00,SystemResetWarning,0829.1,4.99,000.00,029.7,026.6,000.0,038.2,030.9,33.8,0002.4,0027.43,0008.32,0006.27
2023-06-26 21:48:00,SystemResetWarning,0829.1,4.99,000.00,029.7,027.0,000.0,038.2,031.0,33.2,0002.3,0026.24,0008.21,0006.24
2023-06-26 21:49:00,SystemResetWarning,0829.1,5.00,000.00,029.8,027.4,000.0,038.2,031.1,33.1,0002.3,0025.61,0008.19,0006.23
2023-06-26 21:50:00,SystemResetWarning,0829.1,5.01,000.00,029.8,027.7,000.0,038.2,031.2,32.5,0002.5,0026.41,0008.22,0006.24
2023-06-26 21:51:00,SystemResetWarning,0829.1,5.02,000.00,029.8,027.9,000.0,038.2,031.2,32.5,0002.6,0025.95,0008.16,0006.22
2023-06-26 21:52:00,SystemResetWarning,0829.1,4.97,000.00,029.9,027.1,000.0,038.2,031.2,33.0,0002.4,0024.75,0008.10,0006.21
2023-06-26 21:53:00,SystemResetWarning,0829.1,5.01,000.00,029.9,025.3,000.0,038.1,031.2,33.1,0002.0,0023.64,0008.06,0006.20
2023-06-26 21:54:00,SystemResetWarning,0829.1,5.01,000.00,029.8,024.8,000.0,038.1,031.1,31.7,0002.1,0023.28,0008.03,0006.19
2023-06-26 21:55:00,SystemResetWarning,0829.1,5.01,000.00,029.7,024.9,000.0,038.0,030.9,31.6,0002.4,0022.58,0008.01,0006.18
2023-06-26 21:56:00,SystemResetWarning,0829.1,5.00,000.00,029.6,025.4,000.0,038.0,030.7,32.3,0002.4,0022.02,0007.96,0006.19
2023-06-26 21:57:00,SystemResetWarning,0829.1,4.99,000.00,029.6,025.9,000.0,038.0,030.8,32.2,0002.4,0021.66,0007.99,0006.21
2023-06-26 21:58:00,SystemResetWarning,0829.1,5.00,000.00,029.6,026.4,000.0,038.0,030.9,32.6,0002.4,0021.67,0008.02,0006.22
2023-06-26 21:59:00,SystemResetWarning,0829.1,5.00,000.00,029.6,026.8,000.0,038.0,031.0,32.5,0002.3,0022.01,0008.04,0006.23
